Location: Newark
(42.7336°N, 84.5467°W)
Time: 04:02:02
(UTC+00:00)

Hubble Space Telescope - Pass Details

Date: 30 September 2020
Orbit: 536 x 540 km, 28.5° (Epoch: 21 October)

Event Time Altitude Azimuth Distance (km) Brightness Sun altitude
Exits shadow 10:10:53 10° 197° (SSW) 1,775 3.1 -16.2°
Maximum altitude 10:11:59 11° 181° (S) 1,717 3.2 -16.0°
Drops below altitude 10° 10:13:06 10° 166° (SSE) 1,776 3.5 -15.8°
Sets 10:16:59 0° 129° (SE) 2,665 5.0 -15.1°
